Погода в Спасском

Россия / Приморский край     44°36′52″N   132°47′49″E
темп.,
°C
ветер,
м/с
пор.,
м/с
влажн.,
%
обл.,
%
осадки,
мм/ч
давл.,
гПа
погр.,
м
18 мая, ср
ср1801:00+12ю6164679 0.0 1010491
04:00+12ю71550100 0.1 1010381
07:00+11ююз4106492 0.0 1011310
10:00+15юз3462100 0.0 1012464
13:00+14сз2377100 0.4 1013325
16:00+16зюз1171100 2.1 1012623
19:00+15ююз3475100 0.1 1012270
22:00+10ююв22900 0.1 101313
19 мая, чт
чт1901:00+9ююв22890 0.0 101315
04:00+8ююв22885 0.0 101312
07:00+10ююв23825 0.0 101364
10:00+17ююз345464 0.0 1013462
13:00+21юз453876 0.0 10111418
16:00+22юз45365 0.0 10081467
19:00+19юз6105997 0.0 1007359
22:00+15ююз71561100 0.0 1008533
20 мая, пт
пт2001:00+12ю3580100 0.1 1009130
04:00+11ю3584100 0.1 100877
07:00+12ююз258560 0.0 1009169
10:00+18юз336676 0.0 1009553
13:00+22юз225184 0.0 1008931
16:00+24юз223930 0.0 10061121
19:00+22ю345428 0.0 1004100
22:00+17ю4105564 0.0 1005207
21 мая, сб
сб2101:00+17ю6145345 0.0 1004368
04:00+14ю512585 0.0 1003248
07:00+14ю41366100 0.0 1003290
10:00+21ююз71151100 0.0 1002566
13:00+25юз7943100 0.0 10011118
16:00+21ссз4569100 1.2 999230
19:00+17ю4882100 4.8 1001257
22:00+14ююз5993100 9.9 1002353
22 мая, вс
вс2201:00+14юз2394100 0.0 100281
04:00+12сз1298100 0.8 100387
07:00+12ссв1497100 0.0 1004198
10:00+14с458492 0.1 1005663
13:00+16с457862 0.1 1006806
16:00+19ссв46628 0.1 10051305
19:00+18с357048 0.1 1005264
22:00+13св227837 0.1 100711